• In Belarus
  • List of Countries
  • For 7 days
  • Water Temperature
  • Satellite Maps
  • Weather Map
  • Weather Widgets
  • user-avatar
    Login

    Hourly Weather Ischgl

    Today, 22 January, Monday

    Time Temperature Precipitation Wind Pressure Humidity
    00:00 -12°C° 0.7 mm 2 mps 568 mmHg 92%
    01:00 -10°C° 0.7 mm 2 mps 568 mmHg 94%
    02:00 -9°C° 2.2 mm 2 mps 568 mmHg 94%
    03:00 -8°C° 2.2 mm 2 mps 568 mmHg 95%
    04:00 -8°C° 2.2 mm 2 mps 568 mmHg 95%
    05:00 -7°C° 2.9 mm 2 mps 568 mmHg 96%
    06:00 -7°C° 2.9 mm 2 mps 568 mmHg 96%
    07:00 -6°C° 2.9 mm 2 mps 568 mmHg 96%
    08:00 -6°C° 2 mm 2 mps 569 mmHg 96%
    09:00 -5°C° 2 mm 2 mps 569 mmHg 96%
    10:00 -5°C° 2 mm 2 mps 569 mmHg 96%
    11:00 -2°C° 1.6 mm 1 mps 569 mmHg 96%
    12:00 -2°C° 1.6 mm 1 mps 569 mmHg 97%
    13:00 -2°C° 1.6 mm 1 mps 569 mmHg 97%
    14:00 -2°C° 2 mm 1 mps 569 mmHg 97%
    15:00 -2°C° 2 mm 1 mps 569 mmHg 97%
    16:00 -2°C° 2 mm 1 mps 569 mmHg 96%
    17:00 -4°C° 1.7 mm 2 mps 569 mmHg 96%
    18:00 -4°C° 1.7 mm 2 mps 569 mmHg 97%
    19:00 -6°C° 1.7 mm 3 mps 570 mmHg 97%
    20:00 -6°C° 0.6 mm 3 mps 570 mmHg 97%
    21:00 -6°C° 0.6 mm 3 mps 571 mmHg 97%
    22:00 -7°C° 0.6 mm 3 mps 571 mmHg 96%
    23:00 -7°C° 0.1 mm 2 mps 571 mmHg 96%

    Tomorrow, 23 January, Tuesday

    Time Temperature Precipitation Wind Pressure Humidity
    00:00 -7°C° 0.1 mm 2 mps 571 mmHg 96%
    01:00 -8°C° 0.1 mm 2 mps 571 mmHg 95%
    02:00 -8°C° 0 mm 2 mps 572 mmHg 95%
    03:00 -9°C° 0 mm 2 mps 572 mmHg 95%
    04:00 -9°C° 0 mm 2 mps 572 mmHg 95%
    05:00 -9°C° 0 mm 2 mps 572 mmHg 95%
    06:00 -10°C° 0 mm 2 mps 572 mmHg 95%
    07:00 -10°C° 0 mm 2 mps 573 mmHg 95%
    08:00 -9°C° 0 mm 2 mps 573 mmHg 94%
    09:00 -8°C° 0 mm 2 mps 574 mmHg 93%
    10:00 -8°C° 0 mm 2 mps 575 mmHg 92%
    11:00 -7°C° 0 mm 2 mps 575 mmHg 91%
    12:00 -6°C° 0 mm 2 mps 575 mmHg 90%
    13:00 -5°C° 0 mm 2 mps 576 mmHg 89%
    14:00 -5°C° 0 mm 2 mps 576 mmHg 88%
    15:00 -4°C° 0 mm 1 mps 575 mmHg 86%
    16:00 -4°C° 0 mm 1 mps 575 mmHg 85%
    17:00 -6°C° 0 mm 1 mps 575 mmHg 78%
    18:00 -8°C° 0 mm 2 mps 575 mmHg 70%
    19:00 -10°C° 0 mm 2 mps 574 mmHg 62%
    20:00 -9°C° 0 mm 2 mps 575 mmHg 61%
    21:00 -9°C° 0 mm 2 mps 575 mmHg 59%
    22:00 -9°C° 0 mm 2 mps 576 mmHg 58%
    23:00 -8°C° 0 mm 1 mps 576 mmHg 57%

    Day after tomorrow, 24 January, Wednesday

    Time Temperature Precipitation Wind Pressure Humidity
    00:00 -8°C° 0 mm 1 mps 576 mmHg 56%
    01:00 -7°C° 0 mm 1 mps 576 mmHg 56%
    02:00 -8°C° 0 mm 1 mps 576 mmHg 55%
    03:00 -8°C° 0 mm 1 mps 576 mmHg 54%
    04:00 -8°C° 0 mm 1 mps 575 mmHg 53%
    05:00 -8°C° 0 mm 1 mps 576 mmHg 53%
    06:00 -9°C° 0 mm 2 mps 576 mmHg 53%
    07:00 -9°C° 0 mm 2 mps 576 mmHg 54%
    08:00 -7°C° 0 mm 2 mps 576 mmHg 59%
    09:00 -6°C° 0 mm 2 mps 577 mmHg 64%
    10:00 -5°C° 0 mm 2 mps 578 mmHg 70%
    11:00 -4°C° 0 mm 2 mps 578 mmHg 77%
    12:00 -3°C° 0 mm 2 mps 578 mmHg 84%
    13:00 -3°C° 0 mm 2 mps 578 mmHg 91%
    14:00 -3°C° 0 mm 2 mps 577 mmHg 89%
    15:00 -3°C° 0 mm 2 mps 577 mmHg 87%
    16:00 -4°C° 0 mm 2 mps 576 mmHg 85%
    17:00 -5°C° 0 mm 2 mps 576 mmHg 81%
    18:00 -7°C° 0 mm 3 mps 575 mmHg 77%
    19:00 -9°C° 0 mm 3 mps 575 mmHg 74%
    20:00 -9°C° 0 mm 3 mps 575 mmHg 72%
    21:00 -9°C° 0 mm 3 mps 575 mmHg 70%
    22:00 -9°C° 0 mm 3 mps 574 mmHg 68%
    23:00 -10°C° 0 mm 3 mps 574 mmHg 68%

    25 January, Thursday

    Time Temperature Precipitation Wind Pressure Humidity
    00:00 -10°C° 0 mm 3 mps 574 mmHg 67%
    01:00 -10°C° 0 mm 3 mps 574 mmHg 67%
    02:00 -10°C° 0 mm 3 mps 574 mmHg 67%
    03:00 -10°C° 0 mm 3 mps 573 mmHg 68%
    04:00 -9°C° 0 mm 3 mps 573 mmHg 69%
    05:00 -10°C° 0 mm 3 mps 573 mmHg 70%
    06:00 -10°C° 0 mm 3 mps 573 mmHg 71%
    07:00 -10°C° 0 mm 3 mps 573 mmHg 73%
    08:00 -9°C° 0 mm 3 mps 573 mmHg 76%
    09:00 -8°C° 0 mm 3 mps 573 mmHg 78%
    10:00 -8°C° 0 mm 4 mps 573 mmHg 81%
    11:00 -7°C° 0 mm 4 mps 573 mmHg 85%
    12:00 -7°C° 0 mm 4 mps 573 mmHg 88%
    13:00 -5°C° 0 mm 4 mps 573 mmHg 92%
    14:00 -5°C° 0 mm 4 mps 572 mmHg 91%
    15:00 -5°C° 0 mm 3 mps 572 mmHg 91%
    16:00 -6°C° 0 mm 3 mps 572 mmHg 90%
    17:00 -6°C° 0.1 mm 3 mps 572 mmHg 89%
    18:00 -7°C° 0.1 mm 3 mps 571 mmHg 89%
    19:00 -7°C° 0.1 mm 3 mps 571 mmHg 88%
    20:00 -7°C° 0.1 mm 3 mps 571 mmHg 88%
    21:00 -8°C° 0.1 mm 3 mps 571 mmHg 88%
    22:00 -8°C° 0.1 mm 3 mps 571 mmHg 89%
    23:00 -8°C° 0.2 mm 3 mps 570 mmHg 90%

    26 January, Friday

    Time Temperature Precipitation Wind Pressure Humidity
    00:00 -7°C° 0.2 mm 2 mps 570 mmHg 91%
    01:00 -7°C° 0.2 mm 2 mps 570 mmHg 92%
    02:00 -7°C° 0.5 mm 2 mps 570 mmHg 93%
    03:00 -7°C° 0.5 mm 2 mps 570 mmHg 93%
    04:00 -7°C° 0.5 mm 2 mps 569 mmHg 94%
    05:00 -7°C° 1.1 mm 2 mps 570 mmHg 95%
    06:00 -6°C° 1.1 mm 1 mps 570 mmHg 96%
    07:00 -6°C° 1.1 mm 1 mps 570 mmHg 96%
    08:00 -6°C° 1.4 mm 1 mps 570 mmHg 97%
    09:00 -6°C° 1.4 mm 1 mps 570 mmHg 97%
    10:00 -6°C° 1.4 mm 1 mps 570 mmHg 97%
    11:00 -6°C° 1.6 mm 1 mps 570 mmHg 97%
    12:00 -7°C° 1.6 mm 2 mps 570 mmHg 97%
    13:00 -7°C° 1.6 mm 2 mps 570 mmHg 96%
    14:00 -7°C° 1.8 mm 2 mps 570 mmHg 97%
    15:00 -8°C° 1.8 mm 2 mps 570 mmHg 97%
    16:00 -8°C° 1.8 mm 2 mps 570 mmHg 97%
    17:00 -9°C° 1.6 mm 2 mps 570 mmHg 97%
    18:00 -9°C° 1.6 mm 2 mps 570 mmHg 97%
    19:00 -10°C° 1.6 mm 2 mps 570 mmHg 97%
    20:00 -10°C° 1.1 mm 2 mps 570 mmHg 97%
    21:00 -10°C° 1.1 mm 2 mps 571 mmHg 97%
    22:00 -10°C° 1.1 mm 2 mps 571 mmHg 97%
    23:00 -10°C° 0.5 mm 2 mps 571 mmHg 97%

    27 January, Saturday

    Time Temperature Precipitation Wind Pressure Humidity
    00:00 -12°C° 0.5 mm 2 mps 571 mmHg 97%
    01:00 -12°C° 0.5 mm 2 mps 571 mmHg 97%
    02:00 -12°C° 0.3 mm 2 mps 571 mmHg 97%
    03:00 -12°C° 0.3 mm 2 mps 571 mmHg 96%
    04:00 -12°C° 0.3 mm 2 mps 571 mmHg 96%
    05:00 -13°C° 0.2 mm 2 mps 572 mmHg 96%
    06:00 -13°C° 0.2 mm 2 mps 572 mmHg 95%
    07:00 -13°C° 0.2 mm 2 mps 572 mmHg 95%
    08:00 -12°C° 0.1 mm 2 mps 573 mmHg 94%
    09:00 -12°C° 0.1 mm 2 mps 574 mmHg 94%
    10:00 -10°C° 0.1 mm 2 mps 574 mmHg 93%
    11:00 -10°C° 0.1 mm 2 mps 575 mmHg 92%
    12:00 -9°C° 0.1 mm 2 mps 575 mmHg 91%
    13:00 -8°C° 0.1 mm 2 mps 575 mmHg 90%
    14:00 -9°C° 0.1 mm 2 mps 575 mmHg 91%
    15:00 -9°C° 0.1 mm 2 mps 576 mmHg 91%
    16:00 -9°C° 0.1 mm 2 mps 576 mmHg 92%
    17:00 -9°C° 0 mm 1 mps 575 mmHg 93%
    18:00 -11°C° 0 mm 1 mps 575 mmHg 93%
    19:00 -12°C° 0 mm 1 mps 574 mmHg 94%
    20:00 -12°C° 0 mm 1 mps 574 mmHg 90%
    21:00 -13°C° 0 mm 1 mps 575 mmHg 87%
    22:00 -13°C° 0 mm 1 mps 575 mmHg 84%
    23:00 -13°C° 0 mm 1 mps 575 mmHg 80%
    Show more